Location: Norton
(51.3000°N, 0.8167°E)
Time: 03:00:35
(UTC+00:00)

CZ-2C R/B - Pass Details

Date: 03 March 2021
Orbit: 784 x 871 km, 98.2° (Epoch: 12 April)

Event Time Altitude Azimuth Distance (km) Brightness Sun altitude
Rises 19:39:51 0° 12° (NNE) 3,443 5.9 -19.2°
Reaches altitude 10° 19:42:16 10° 10° (N) 2,492 5.2 -19.6°
Maximum altitude 19:47:45 64° 290° (WNW) 926 3.1 -20.4°
Drops below altitude 10° 19:53:03 10° 210° (SSW) 2,419 5.2 -21.2°
Sets 19:55:22 0° 207° (SSW) 3,334 5.9 -21.6°
